Current Version              Previous Version:    01  02  03  04  05  06  07  08  09  10  11  12  13  14  15  16  17  18  19  20  21  22  23  24  25  26  27  28  29  30  
   31  32  33  34  35  36  37  38  39  40  41  42  43  44  45  46  47  48  49  50  51  52  53  54  55  56  57  58  59  60  

[Printable]
765
ASUS44 KEWX 202202
RWRTX
SOUTH TEXAS REGIONAL WEATHER ROUNDUP
NATIONAL WEATHER SERVICE AUSTIN/SAN ANTONIO TX
500 PM CDT WED AUG 20 2014

NOTE: "FAIR" INDICATED FEW OR NO CLOUDS BELOW 12,000 FEET WITH NO
SIGNIFICANT WEATHER AND/OR OBSTRUCTIONS TO VISIBILITY.

* - THESE STATIONS ARE NOT NWS OR FAA STATIONS...AND ARE NOT SUBJECT
    TO NWS AND FAA QUALITY CONTROL.

TXZ171-172-183>190-202300-
TEXAS HILL COUNTRY AND EDWARDS PLATEAU

CITY           SKY/WX    TMP DP  RH WIND       PRES   REMARKS
JUNCTION       SUNNY     92  60  34 SE13      29.91F HX  91
*LLANO         SUNNY     99  61  28 S12       29.91F HX  99
BURNET         MOSUNNY   97  59  28 S13G24    29.92F HX  96
*HORSESHOE BAY SUNNY     98  58  26 S12G17    29.90S HX  97
*KERRVILLE     SUNNY     94  64  36 S14G21    29.93F HX  96
*FREDERICKSBRG MOSUNNY   93  60  32 S12G18    29.93F HX  92
*ROCKSPRINGS   SUNNY     90  63  40 S14       29.98F HX  90
*BOERNE STAGE  PTSUNNY   97  57  26 S12G17    29.92F HX  95
*CASTROVILLE   MOSUNNY  100  59  26 SE10G21   29.87F HX  99
HONDO          MOSUNNY   97  62  31 S17       29.88F HX  98
*UVALDE        MOSUNNY   98  64  32 SE12G17   29.86F HX 100
DEL RIO        SUNNY     99  62  29 SE14G23   29.83F HX 100
LAUGHLIN AFB   SUNNY     97  61  30 SE16      29.84F HX  97
CARRIZO SPRGS  MOSUNNY  100  63  28 SE15      29.81F HX 102
$$

TXZ173-191>194-202-209-217>225-228-202300-
CENTRAL AND SOUTH CENTRAL TEXAS

CITY           SKY/WX    TMP DP  RH WIND       PRES   REMARKS
GEORGETOWN     MOSUNNY   99  63  30 S14G20    29.89F HX 100
AUSTIN/BERGSTM MOSUNNY  100  65  31 SE15G23   29.86F HX 103
AUSTIN/MABRY   PTSUNNY  101  63  28 SE12      29.88F HX 103
*AUSTIN/EXEC   MOSUNNY  100  64  30 SE12      29.88F HX 103
*LAGO VISTA    SUNNY     97  59  28 S9G17     29.92F HX  96
SAN MARCOS     MOSUNNY  100  64  30 SE16      29.88F HX 103
NEW BRAUNFELS  MOSUNNY  100  62  28 S15       29.86F HX 101
RANDOLPH AFB   MOSUNNY   98  63  31 SE15G24   29.88F HX 100
PT SAN ANTONIO MOSUNNY   99  61  28 SE12      29.85F HX  99
SAN ANTONIO    MOSUNNY   99  63  30 S17G23    29.88F HX 101
STINSON FIELD  MOSUNNY  101  63  28 SE17G23   29.85F HX 103
*PLEASANTON    MOSUNNY  101  63  28 E13G23    29.85F HX 102
*LA GRANGE     MOSUNNY  100  71  38 SE14G20   29.88S HX 107
*GIDDINGS      MOSUNNY   98  64  32 S10G20    29.93S HX 100
*GONZALES      MOSUNNY   98  68  37 S15G26    29.87F HX 103
$$

TXZ163>164-176>182-195>201-210>213-226-227-235-202300-
SOUTHEAST TEXAS

CITY           SKY/WX    TMP DP  RH WIND       PRES   REMARKS
COLLEGE STN    TSTM      81  74  79 SW12      29.95R
*BRYAN         CLOUDY    87  68  53 S21       29.95R THUNDER HX  90
*CALDWELL      MOSUNNY   93  64  38 SE18G24   29.94R HX  95
*CROCKETT        N/A    N/A N/A N/A MISG        N/A
*BRENHAM       MOSUNNY   85  73  66 E9G18     29.93F THUNDER HX  91
HUNTSVILLE     PTSUNNY   78  72  81 VRB3      29.96F
CONROE         CLOUDY    76  72  87 E3        29.97F
HOUSTON BUSH   CLOUDY    79  71  76 E7        29.96F
HOUSTON HOBBY  PTSUNNY   88  77  69 S7        29.95F HX 100
*HOUSTON SW AP PTSUNNY   92  73  53 MISG      29.95F HX 100
PEARLAND       PTSUNNY   92  75  57 S14G26    29.97F HX 103
HOUSTON HOOKS  PTSUNNY   83  75  77 E6        29.96F HX  90
ELLINGTON FLD  PTSUNNY   90  77  66 SE12      29.97F HX 102
SUGAR LAND     PTSUNNY   93  75  55 S14G23    29.94F HX 104
*HOUSTON EXEC  PTSUNNY   95  72  46 S14G21    29.94F HX 103
*CLEVELAND MUN PTSUNNY   75  74  96 CALM      30.00R
*WHARTON       MOSUNNY   94  73  51 SE15G23   29.94S HX 103
$$

TXZ214>216-236>238-202300-
THE UPPER TEXAS COAST

CITY           SKY/WX    TMP DP  RH WIND       PRES   REMARKS
*ORANGE        MOSUNNY   89  75  63 S13       30.01S HX  99
PORT ARTHUR    MOSUNNY   90  77  65 S14       29.98R HX 103
GALVESTON      PTSUNNY   88  75  65 SE13      29.99S HX  97
ANGLETON       MOSUNNY   89  78  70 S15       29.96F HX 103
*BAY CITY      PTSUNNY   92  77  60 S14       29.95S HX 106
PALACIOS       MOSUNNY   91  77  63 S17G24    29.94F HX 104
$$

TXZ229>234-239>247-202300-
TEXAS COASTAL BEND AND RIO GRANDE PLAINS

CITY           SKY/WX    TMP DP  RH WIND       PRES   REMARKS
VICTORIA       MOSUNNY   98  73  44 S20G25    29.91F HX 108
*BEEVILLE      MOSUNNY   96  72  45 SE23      29.87F HX 104
ROCKPORT       MOSUNNY   89  79  72 SE20      29.90F HX 104
*PORT ARANSAS  MOSUNNY   87  79  75 SE14      29.91S HX 102
*PORT LAVACA   MOSUNNY   93  72  51 S15G22    29.92S HX 101
*INGLESIDE     SUNNY     92  76  58 SE24G31   29.89F HX 105
CORPUS CHRISTI PTSUNNY   94  73  50 SE25G33   29.88F HX 103
CORPUS NAS     PTSUNNY   92  79  65 SE26G33   29.89F HX 108
*ROBSTOWN      NOT AVBL
ALICE          MOSUNNY   97  75  49 SE22G32   29.85F HX 109
KINGSVILLE NAS PTSUNNY   96  76  52 SE28G37   29.86F HX 109
COTULLA        SUNNY    100  61  27 SE15G28   29.82F HX 101
*FAITH RANCH   MOSUNNY   99  63  30 SE13G23   29.83F HX 100
LAREDO         SUNNY    102  65  29 SE14      29.82F HX 105
$$

TXZ248>255-202300-
DEEP SOUTH TEXAS

CITY           SKY/WX    TMP DP  RH WIND       PRES   REMARKS
BROWNSVILLE    PTSUNNY   92  76  59 SE26G32   29.89F HX 104
PORT ISABEL    PTSUNNY   93  75  55 SE23G32   29.89F HX 104
*SOUTH PADRE   SUNNY     90  79  70 SE10      29.91F HX 105
HARLINGEN      MOSUNNY   95  72  47 SE22G32   29.86F HX 103
*HEBBRONVILLE  MOSUNNY   99  61  27 SE17G25   29.85F HX 100
MCALLEN        SUNNY     97  71  42 SE24G31   29.84F HX 104
*WESLACO       MOSUNNY   96  67  38 S18G30    29.85F HX 100
FALFURRIAS     MOSUNNY  105  80  44 S17G29    29.83F HX 126
EDINBURG       SUNNY    100  64  30 SE21G29   29.84F HX 102
*ZAPATA        MOSUNNY  102  61  26 SE9G22    29.79F HX 103
$$

TXZ213>215-236>238-242>244-246-247-251-254-255-202300-
CMAN STATIONS

STATION/POSITION TIME  TEMP    WIND        PRES    WAVE
                       AIR SEA DIR/SP/G            HT/PER
                 (UTC) (F)     (DEG/KT/KT) (MB)    (FT/S)
SABINE PASS      2100   88 87  190/ 13/ 17 1015.8
SEA RIM ST PARK  2100   88     190/ 11/ 15 1016.1
NORTH JETTY/GLS  2100   86 88  190/ 10/ 12   N/A
EAGLE POINT      2100   88 88  200/ 15/ 18 1015.2
MORGANS POINT    2100   84      50/  5/  6 1015.0
MISSION/ARANSAS  2100   85     150/ 19     1014.0
PORT O`CONNOR    2100          160/ 10/ 12   N/A
PORT ARANSAS     2100   84 86  140/ 15/ 16 1014.1
MALAQUITE BEACH  2100   83 83  130/ 16/ 18 1012.1
BAFFIN BAY       2100   86 90  140/ 22/ 28 1012.1
PORT ISABEL      2100   87 81  130/ 11/ 15 1013.2
$$

GMZ080-GMZ150>470-202300-
OFFSHORE BUOY REPORTS

STATION/POSITION TIME  TEMP    WIND        PRES    WAVE
                       AIR SEA DIR/SP/G            HT/PER
                 (UTC) (F)     (DEG/KT/KT) (MB)    (FT/S)
90 E PT ARANSAS  2200   86 85  150/ 12/ 16 1014.9    3/ 6
35 NE PT MANSFLD 2100   85 86  160/ 17/ 19 1013.0    4/ 6
200 E PT ISABEL  2100   87 87  160/ 14/ 16 1015.4    3/ 6
$$